Location: Recife
(8.0585°S, 34.8848°W)
Time: 12:09:12
(UTC-03:00)

Courier 1B - Pass Details

Date: 23 April 2026
Orbit: 962 x 1209 km, 28.3° (Epoch: 7 May)

Event Time Altitude Azimuth Distance (km) Brightness Sun altitude
Rises 13:27:07 0° 258° (WSW) 4,067 11.1 51.8°
Reaches altitude 10° 13:30:20 10° 268° (W) 3,074 10.8 51.1°
Maximum altitude 13:36:56 32° 328° (NNW) 1,810 10.3 49.7°
Drops below altitude 10° 13:43:14 10° 29° (NNE) 2,912 10.1 48.3°
Sets 13:46:13 0° 39° (NE) 3,824 10.5 47.7°
